VLG2JC LEVC-LEPA

Flight info

Callsign VLG2JC
Flight time N/A
Altitude 20000
Route ORVUS M871 GODOX
Aircraft A321/M-SDE3FGHIRWY/LB1

Departure

Time N/A
Airport Valencia Airport (LEVC)

Arrival

Time 2026-05-07 19:40
Airport Palma de Mallorca Airport (LEPA)
Time Latitude Longitude Altitude Speed Heading
2026-05-07 18:42 38.28572 -0.56497 115 ft 0 kts 67°
2026-05-07 18:48 38.28567 -0.56518 111 ft 4 kts 108°
2026-05-07 18:48 38.28579 -0.56531 113 ft 4 kts 172°
2026-05-07 18:48 38.28605 -0.56538 113 ft 4 kts 154°
2026-05-07 18:48 38.28623 -0.56554 112 ft 4 kts 124°
2026-05-07 18:49 38.28629 -0.56581 115 ft 4 kts 72°
2026-05-07 18:49 38.28622 -0.56602 115 ft 0 kts 54°
2026-05-07 18:51 38.28625 -0.56595 115 ft 2 kts 54°
2026-05-07 18:52 38.28628 -0.56566 114 ft 6 kts 111°
2026-05-07 18:52 38.28597 -0.56573 116 ft 4 kts 225°
2026-05-07 18:52 38.28585 -0.56590 114 ft 2 kts 226°
2026-05-07 18:52 38.28564 -0.56604 118 ft 4 kts 199°
2026-05-07 18:53 38.28527 -0.56616 116 ft 7 kts 197°
2026-05-07 18:53 38.28510 -0.56654 119 ft 4 kts 279°
2026-05-07 18:53 38.28517 -0.56690 118 ft 3 kts 282°
2026-05-07 18:53 38.28519 -0.56704 121 ft 0 kts 281°
2026-05-07 18:54 38.28524 -0.56733 120 ft 10 kts 281°
2026-05-07 18:54 38.28542 -0.56880 123 ft 23 kts 279°
2026-05-07 18:54 38.28570 -0.57069 137 ft 19 kts 282°
2026-05-07 18:55 38.28589 -0.57209 143 ft 13 kts 281°
2026-05-07 18:55 38.28602 -0.57299 147 ft 7 kts 278°
2026-05-07 18:55 38.28607 -0.57341 149 ft 2 kts 278°
2026-05-07 18:55 38.28607 -0.57345 149 ft 0 kts 279°
2026-05-07 18:56 38.28609 -0.57356 149 ft 4 kts 279°
2026-05-07 18:57 38.28618 -0.57419 152 ft 10 kts 282°
2026-05-07 18:57 38.28606 -0.57490 154 ft 9 kts 224°
2026-05-07 18:57 38.28551 -0.57509 153 ft 0 kts 191°
2026-05-07 19:00 38.28504 -0.57521 153 ft 13 kts 189°
2026-05-07 19:01 38.28446 -0.57458 153 ft 12 kts 102°
2026-05-07 19:01 38.28438 -0.57400 151 ft 0 kts 101°
2026-05-07 19:02 38.28436 -0.57391 151 ft 14 kts 101°
2026-05-07 19:03 38.28371 -0.56911 136 ft 93 kts 99°
2026-05-07 19:03 38.28216 -0.55814 103 ft 156 kts 100°
2026-05-07 19:03 38.28004 -0.54375 545 ft 168 kts 98°
2026-05-07 19:03 38.27788 -0.52910 1327 ft 168 kts 98°
2026-05-07 19:04 38.27616 -0.51451 2103 ft 167 kts 90°
2026-05-07 19:04 38.27909 -0.49958 2324 ft 186 kts 64°
2026-05-07 19:04 38.28451 -0.48353 2487 ft 210 kts 65°
2026-05-07 19:04 38.29070 -0.46550 2676 ft 236 kts 65°
2026-05-07 19:05 38.29755 -0.44558 3206 ft 251 kts 65°
2026-05-07 19:05 38.30454 -0.42502 4025 ft 255 kts 65°
2026-05-07 19:05 38.31158 -0.40411 4864 ft 259 kts 68°
2026-05-07 19:05 38.31725 -0.38210 5655 ft 265 kts 72°
2026-05-07 19:06 38.32244 -0.35936 6437 ft 270 kts 73°
2026-05-07 19:06 38.33261 -0.31228 7909 ft 281 kts 73°
2026-05-07 19:06 38.33783 -0.28810 8664 ft 285 kts 73°
2026-05-07 19:07 38.34317 -0.26354 9423 ft 291 kts 73°
2026-05-07 19:07 38.34863 -0.23851 10128 ft 297 kts 73°
2026-05-07 19:07 38.35439 -0.21217 10365 ft 320 kts 73°
2026-05-07 19:07 38.36051 -0.18426 10545 ft 343 kts 73°
2026-05-07 19:08 38.36712 -0.15420 10860 ft 359 kts 73°
2026-05-07 19:08 38.37390 -0.12322 11449 ft 366 kts 73°
2026-05-07 19:08 38.38081 -0.09178 12092 ft 371 kts 73°
2026-05-07 19:08 38.38781 -0.05989 12768 ft 376 kts 73°
2026-05-07 19:09 38.39486 -0.02769 13444 ft 380 kts 73°
2026-05-07 19:09 38.40199 0.00500 14069 ft 385 kts 73°
2026-05-07 19:09 38.40915 0.03807 14673 ft 389 kts 73°
2026-05-07 19:09 38.41639 0.07155 15285 ft 393 kts 73°
2026-05-07 19:10 38.42370 0.10529 15915 ft 397 kts 74°
2026-05-07 19:10 38.43112 0.13944 16543 ft 401 kts 74°
2026-05-07 19:10 38.43863 0.17389 17164 ft 405 kts 74°
2026-05-07 19:10 38.44617 0.20868 17774 ft 409 kts 74°
2026-05-07 19:11 38.45372 0.24383 18367 ft 413 kts 74°
2026-05-07 19:11 38.46123 0.27889 18893 ft 416 kts 74°
2026-05-07 19:11 38.46888 0.31470 19436 ft 420 kts 75°
2026-05-07 19:11 38.47659 0.35082 19981 ft 423 kts 75°
2026-05-07 19:12 38.48435 0.38715 20512 ft 427 kts 75°
2026-05-07 19:12 38.49223 0.42389 21032 ft 430 kts 75°
2026-05-07 19:12 38.50016 0.46090 21534 ft 434 kts 75°
2026-05-07 19:12 38.50815 0.49819 22029 ft 437 kts 75°
2026-05-07 19:13 38.51615 0.53570 22522 ft 440 kts 75°
2026-05-07 19:13 38.52419 0.57356 23005 ft 443 kts 75°
2026-05-07 19:13 38.53227 0.61169 23489 ft 446 kts 75°
2026-05-07 19:13 38.54041 0.65002 23895 ft 449 kts 75°
2026-05-07 19:14 38.54858 0.68866 24243 ft 453 kts 74°
2026-05-07 19:14 38.55680 0.72766 24591 ft 457 kts 74°
2026-05-07 19:14 38.56509 0.76702 24879 ft 460 kts 74°
2026-05-07 19:14 38.57341 0.80669 24935 ft 461 kts 74°
2026-05-07 19:15 38.58168 0.84624 24951 ft 460 kts 74°
2026-05-07 19:15 38.58992 0.88569 24946 ft 460 kts 74°
2026-05-07 19:15 38.59816 0.92515 24940 ft 459 kts 74°
2026-05-07 19:15 38.60638 0.96455 24947 ft 458 kts 74°
2026-05-07 19:16 38.61459 1.00384 24939 ft 457 kts 74°
2026-05-07 19:16 38.62274 1.04299 24940 ft 456 kts 75°
2026-05-07 19:16 38.63088 1.08214 24936 ft 455 kts 75°
2026-05-07 19:16 38.63899 1.12124 24937 ft 454 kts 75°
2026-05-07 19:17 38.64705 1.16028 24937 ft 454 kts 75°
2026-05-07 19:17 38.65506 1.19924 24938 ft 453 kts 75°
2026-05-07 19:17 38.66296 1.23772 24936 ft 453 kts 75°
2026-05-07 19:17 38.67097 1.27671 24937 ft 452 kts 75°
2026-05-07 19:18 38.67895 1.31564 24935 ft 452 kts 75°
2026-05-07 19:18 38.68690 1.35450 24937 ft 452 kts 76°
2026-05-07 19:18 38.69482 1.39336 24933 ft 451 kts 76°
2026-05-07 19:18 38.70272 1.43222 24933 ft 451 kts 76°
2026-05-07 19:19 38.71061 1.47105 24948 ft 451 kts 76°
2026-05-07 19:19 38.71848 1.50986 24940 ft 450 kts 76°
2026-05-07 19:19 38.72639 1.54869 24938 ft 450 kts 76°
2026-05-07 19:19 38.73430 1.58747 24933 ft 450 kts 76°
2026-05-07 19:20 38.74219 1.62634 24931 ft 451 kts 76°
2026-05-07 19:20 38.75005 1.66515 24931 ft 451 kts 76°
2026-05-07 19:20 38.75791 1.70406 24928 ft 451 kts 76°
2026-05-07 19:20 38.76570 1.74297 24929 ft 451 kts 76°
2026-05-07 19:21 38.77344 1.78186 24929 ft 451 kts 77°
2026-05-07 19:21 38.78116 1.82075 24928 ft 451 kts 77°
2026-05-07 19:21 38.78891 1.85967 24932 ft 451 kts 76°
2026-05-07 19:21 38.79737 1.89832 24930 ft 451 kts 71°
2026-05-07 19:22 38.81045 1.93485 24938 ft 451 kts 60°
2026-05-07 19:22 38.82838 1.96783 24937 ft 452 kts 52°
2026-05-07 19:22 38.84777 1.99951 24938 ft 451 kts 52°
2026-05-07 19:22 38.86680 2.03087 24942 ft 451 kts 52°
2026-05-07 19:23 38.88604 2.06268 24945 ft 451 kts 52°
2026-05-07 19:23 38.90524 2.09441 24946 ft 451 kts 52°
2026-05-07 19:23 38.92444 2.12622 24941 ft 450 kts 52°
2026-05-07 19:23 38.94360 2.15807 24943 ft 450 kts 52°
2026-05-07 19:24 38.96273 2.18988 24940 ft 450 kts 53°
2026-05-07 19:24 38.98184 2.22163 24842 ft 449 kts 53°
2026-05-07 19:24 39.00102 2.25348 23825 ft 455 kts 53°
2026-05-07 19:24 39.02056 2.28589 22787 ft 460 kts 53°
2026-05-07 19:25 39.04012 2.31834 22033 ft 456 kts 53°
2026-05-07 19:25 39.05916 2.35001 21866 ft 439 kts 53°
2026-05-07 19:25 39.07748 2.38055 21731 ft 423 kts 53°
2026-05-07 19:25 39.09535 2.41043 21207 ft 419 kts 53°
2026-05-07 19:26 39.11309 2.44014 20648 ft 417 kts 53°
2026-05-07 19:26 39.13067 2.46960 20142 ft 410 kts 53°
2026-05-07 19:26 39.14771 2.49812 19233 ft 398 kts 54°
2026-05-07 19:26 39.16441 2.52614 18003 ft 397 kts 54°
2026-05-07 19:27 39.18112 2.55423 16794 ft 391 kts 54°
2026-05-07 19:27 39.19739 2.58174 15711 ft 379 kts 58°
2026-05-07 19:27 39.20807 2.61156 14845 ft 356 kts 63°
2026-05-07 19:27 39.22153 2.63826 13604 ft 357 kts 53°
2026-05-07 19:28 39.23763 2.66240 12341 ft 353 kts 49°
2026-05-07 19:28 39.25420 2.68527 11196 ft 346 kts 48°
2026-05-07 19:28 39.27028 2.70792 10095 ft 338 kts 50°
2026-05-07 19:28 39.28532 2.73053 9398 ft 320 kts 52°
2026-05-07 19:29 39.29867 2.75186 9179 ft 292 kts 53°
2026-05-07 19:29 39.31133 2.77158 9049 ft 280 kts 44°
2026-05-07 19:29 39.32709 2.78475 8681 ft 266 kts 22°
2026-05-07 19:29 39.34518 2.78866 7907 ft 269 kts 356°
2026-05-07 19:30 39.36312 2.78078 7277 ft 280 kts 327°
2026-05-07 19:30 39.37639 2.76244 6896 ft 282 kts 299°
2026-05-07 19:30 39.38176 2.73826 6539 ft 282 kts 273°
2026-05-07 19:30 39.38168 2.71284 6152 ft 283 kts 268°
2026-05-07 19:31 39.38078 2.68749 5791 ft 282 kts 267°
2026-05-07 19:31 39.37977 2.66225 5448 ft 280 kts 267°
2026-05-07 19:31 39.37907 2.64562 5254 ft 279 kts 267°
2026-05-07 19:31 39.37767 2.61242 4938 ft 272 kts 267°
2026-05-07 19:32 39.37700 2.59648 4850 ft 264 kts 267°
2026-05-07 19:32 39.37597 2.57321 4718 ft 253 kts 267°
2026-05-07 19:32 39.37491 2.55096 4585 ft 242 kts 267°
2026-05-07 19:32 39.37349 2.52262 4230 ft 237 kts 267°
2026-05-07 19:33 39.37277 2.50827 4037 ft 236 kts 267°
2026-05-07 19:33 39.37176 2.48733 3995 ft 227 kts 267°
2026-05-07 19:33 39.37080 2.46742 3997 ft 224 kts 267°
2026-05-07 19:33 39.37052 2.44737 3997 ft 222 kts 283°
2026-05-07 19:34 39.37705 2.43005 4008 ft 215 kts 318°
2026-05-07 19:34 39.38978 2.42087 4006 ft 210 kts 351°
2026-05-07 19:34 39.40395 2.42224 4003 ft 204 kts 23°
2026-05-07 19:34 39.41501 2.43314 4003 ft 202 kts 54°
2026-05-07 19:35 39.42253 2.44853 4007 ft 203 kts 60°
2026-05-07 19:35 39.42977 2.46385 3994 ft 195 kts 58°
2026-05-07 19:35 39.43685 2.47874 3991 ft 194 kts 59°
2026-05-07 19:35 39.44393 2.49359 3857 ft 193 kts 59°
2026-05-07 19:36 39.45101 2.50844 3615 ft 194 kts 59°
2026-05-07 19:36 39.45804 2.52318 3368 ft 191 kts 59°
2026-05-07 19:36 39.46500 2.53780 3119 ft 191 kts 59°
2026-05-07 19:36 39.47188 2.55224 2862 ft 187 kts 59°
2026-05-07 19:37 39.47865 2.56645 2611 ft 182 kts 59°
2026-05-07 19:37 39.48515 2.58010 2390 ft 172 kts 60°
2026-05-07 19:37 39.49123 2.59289 2153 ft 166 kts 59°
2026-05-07 19:37 39.49723 2.60551 1925 ft 163 kts 59°
2026-05-07 19:38 39.50312 2.61791 1734 ft 160 kts 58°
2026-05-07 19:38 39.50891 2.63007 1562 ft 152 kts 60°
2026-05-07 19:38 39.51431 2.64145 1309 ft 147 kts 61°
2026-05-07 19:38 39.51948 2.65235 1092 ft 141 kts 58°
2026-05-07 19:39 39.52473 2.66330 905 ft 142 kts 57°
2026-05-07 19:39 39.52989 2.67424 736 ft 142 kts 58°
2026-05-07 19:39 39.53502 2.68504 548 ft 140 kts 58°
2026-05-07 19:39 39.54009 2.69571 358 ft 137 kts 58°
2026-05-07 19:40 39.54513 2.70633 146 ft 138 kts 58°
2026-05-07 19:40 39.54997 2.71660 30 ft 120 kts 59°
2026-05-07 19:40 39.55341 2.72388 30 ft 71 kts 56°
2026-05-07 19:40 39.55508 2.72737 30 ft 21 kts 64°
2026-05-07 19:41 39.55461 2.72873 30 ft 17 kts 127°
2026-05-07 19:41 39.55428 2.72936 30 ft 5 kts 124°
2026-05-07 19:41 39.55400 2.72966 30 ft 6 kts 162°
2026-05-07 19:41 39.55366 2.72971 30 ft 1 kts 207°
2026-05-07 19:42 39.55369 2.72957 30 ft 5 kts 292°
2026-05-07 19:42 39.55344 2.72840 30 ft 22 kts 239°
2026-05-07 19:42 39.55261 2.72663 30 ft 23 kts 239°
2026-05-07 19:42 39.55178 2.72494 30 ft 13 kts 223°
2026-05-07 19:43 39.55097 2.72505 30 ft 13 kts 147°
2026-05-07 19:43 39.55047 2.72597 30 ft 14 kts 86°
2026-05-07 19:43 39.55094 2.72708 30 ft 15 kts 58°
2026-05-07 19:43 39.55151 2.72827 30 ft 16 kts 59°
2026-05-07 19:44 39.55210 2.72956 30 ft 17 kts 59°
2026-05-07 19:44 39.55277 2.73092 30 ft 18 kts 58°
2026-05-07 19:44 39.55345 2.73238 30 ft 19 kts 59°
2026-05-07 19:44 39.55418 2.73388 30 ft 20 kts 58°
2026-05-07 19:45 39.55436 2.73501 30 ft 12 kts 144°
2026-05-07 19:45 39.55347 2.73530 30 ft 14 kts 166°
2026-05-07 19:45 39.55254 2.73577 30 ft 15 kts 150°
2026-05-07 19:45 39.55169 2.73643 30 ft 7 kts 167°
2026-05-07 19:46 39.55134 2.73598 30 ft 8 kts 242°
2026-05-07 19:46 39.55104 2.73530 30 ft 9 kts 238°
2026-05-07 19:46 39.55068 2.73452 30 ft 10 kts 240°
2026-05-07 19:46 39.55048 2.73423 30 ft 4 kts 208°
2026-05-07 19:47 39.55031 2.73432 30 ft 3 kts 159°
2026-05-07 19:47 39.55006 2.73442 30 ft 4 kts 165°
2026-05-07 19:47 39.55004 2.73443 30 ft 0 kts 165°